Voltar ao catálogo

GJZ 05

AtivoMilitarLEO
NORAD 62294·PAYLOAD·🇨🇳 China

Lançado Dec 12, 2024 de Jiuquan Satellite Launch Center

Loading…

Próximas Passagens (próximas 24 horas)

TLE

AtualizadoSource: Space-Track

Época: Sep 14, 2026, 20:19 UTC

1 62294U 24238E   26257.84707308 -.00000049  00000-0  72524-4 0  9999
2 62294  59.9146 359.5883 0022601  66.4529 293.8849 13.75197891 88249

Acompanhe GJZ 05 em tempo real com AllMySat

Download on the App Store